QTR601 OTHH-HKJK

Flight info

Callsign QTR601
Flight time N/A
Altitude 28000
Route DATRI2W/34L DATRI L564 BAT/N0494F370 DCT KUTNA DCT MIGMA DCT GOBRO L425 ITUVO/N0491F380 B400 RIGAM B403 BOMIX UB403 MAV UP312 WAV WAJI1A
Aircraft B77W/H-SDE1E2E3FGHIJ2J3J4J5M1RWXY/LB1D1

Departure

Time N/A
Airport Hamad International Airport (OTHH)

Arrival

Time 2026-04-29 22:08
Airport Jomo Kenyatta International Airport (HKJK)
Time Latitude Longitude Altitude Speed Heading
2026-04-29 17:38 23.22084 51.45805 35812 ft 482 kts 184°
2026-04-29 17:38 23.15451 51.45899 35821 ft 483 kts 184°
2026-04-29 17:39 23.08727 51.46016 35814 ft 483 kts 184°
2026-04-29 17:39 23.01994 51.46125 35811 ft 484 kts 184°
2026-04-29 17:40 22.95256 51.46230 35811 ft 484 kts 184°
2026-04-29 17:40 22.88517 51.46402 35804 ft 487 kts 178°
2026-04-29 17:41 22.81933 51.48358 35809 ft 499 kts 160°
2026-04-29 17:41 22.75954 51.52315 35806 ft 506 kts 149°
2026-04-29 17:42 22.70209 51.56692 35798 ft 506 kts 149°
2026-04-29 17:42 22.64448 51.61048 35795 ft 497 kts 149°
2026-04-29 17:43 22.58792 51.65250 35792 ft 491 kts 149°
2026-04-29 17:43 22.53179 51.69376 35787 ft 492 kts 149°
2026-04-29 17:44 22.47524 51.73527 35783 ft 493 kts 149°
2026-04-29 17:44 22.41835 51.77705 35781 ft 494 kts 149°
2026-04-29 17:45 22.36137 51.81889 35782 ft 495 kts 149°
2026-04-29 17:45 22.30435 51.86072 35780 ft 496 kts 149°
2026-04-29 17:46 22.24730 51.90254 35775 ft 496 kts 149°
2026-04-29 17:46 22.19015 51.94437 35775 ft 496 kts 149°
2026-04-29 17:47 22.13303 51.98615 35772 ft 496 kts 149°
2026-04-29 17:47 22.07580 52.02796 35772 ft 496 kts 149°
2026-04-29 17:48 22.01886 52.06952 35771 ft 495 kts 149°
2026-04-29 17:48 21.96170 52.11120 35775 ft 495 kts 149°
2026-04-29 17:49 21.90466 52.15275 35770 ft 494 kts 149°
2026-04-29 17:49 21.84773 52.19418 35771 ft 494 kts 148°
2026-04-29 17:50 21.79091 52.23549 35771 ft 493 kts 148°
2026-04-29 17:50 21.73412 52.27673 35774 ft 492 kts 148°
2026-04-29 17:51 21.67741 52.31788 35774 ft 491 kts 148°
2026-04-29 17:51 21.62124 52.35860 35772 ft 490 kts 148°
2026-04-29 17:52 21.56464 52.39959 35770 ft 490 kts 148°
2026-04-29 17:52 21.50813 52.44047 35778 ft 489 kts 148°
2026-04-29 17:53 21.45169 52.48127 35781 ft 489 kts 148°
2026-04-29 17:53 21.39523 52.52204 35780 ft 489 kts 148°
2026-04-29 17:54 21.33879 52.56276 35781 ft 489 kts 148°
2026-04-29 17:54 21.28235 52.60344 35782 ft 489 kts 148°
2026-04-29 17:55 21.22595 52.64405 35783 ft 489 kts 148°
2026-04-29 17:55 21.16946 52.68469 35785 ft 489 kts 148°
2026-04-29 17:56 21.11298 52.72529 35781 ft 489 kts 148°
2026-04-29 17:56 21.05657 52.76580 35781 ft 489 kts 148°
2026-04-29 17:57 21.00004 52.80635 35783 ft 489 kts 148°
2026-04-29 17:57 20.94357 52.84682 35784 ft 488 kts 148°
2026-04-29 17:58 20.88712 52.88725 35783 ft 488 kts 148°
2026-04-29 17:58 20.83075 52.92758 35786 ft 488 kts 148°
2026-04-29 17:59 20.77472 52.96762 35786 ft 487 kts 148°
2026-04-29 17:59 20.71834 53.00789 35787 ft 487 kts 148°
2026-04-29 18:00 20.66201 53.04808 35785 ft 487 kts 148°
2026-04-29 18:00 20.60567 53.08824 35789 ft 487 kts 148°
2026-04-29 18:01 20.54936 53.12834 35790 ft 486 kts 148°
2026-04-29 18:01 20.49309 53.16838 35793 ft 486 kts 148°
2026-04-29 18:02 20.43682 53.20838 35790 ft 486 kts 148°
2026-04-29 18:02 20.38059 53.24832 35789 ft 486 kts 147°
2026-04-29 18:03 20.32429 53.28828 35789 ft 486 kts 147°
2026-04-29 18:03 20.26802 53.32817 35790 ft 486 kts 147°
2026-04-29 18:04 20.21205 53.36782 35789 ft 486 kts 147°
2026-04-29 18:04 20.15576 53.40766 35789 ft 486 kts 147°
2026-04-29 18:05 20.09952 53.44743 35788 ft 486 kts 147°
2026-04-29 18:05 20.04319 53.48723 35789 ft 486 kts 148°
2026-04-29 18:06 19.98690 53.52697 35790 ft 485 kts 148°
2026-04-29 18:06 19.93065 53.56664 35790 ft 485 kts 148°
2026-04-29 18:07 19.87440 53.60629 35791 ft 485 kts 148°
2026-04-29 18:07 19.81812 53.64591 35790 ft 485 kts 148°
2026-04-29 18:08 19.76187 53.68549 35789 ft 485 kts 148°
2026-04-29 18:08 19.70558 53.72507 35790 ft 485 kts 148°
2026-04-29 18:09 19.64943 53.76466 35790 ft 484 kts 146°
2026-04-29 18:09 19.62422 53.78841 35789 ft 487 kts 133°
2026-04-29 18:09 19.60411 53.81733 35803 ft 490 kts 122°
2026-04-29 18:09 19.58908 53.84992 35783 ft 494 kts 110°
2026-04-29 18:10 19.57949 53.88493 35799 ft 495 kts 107°
2026-04-29 18:10 19.56169 53.95559 35789 ft 497 kts 108°
2026-04-29 18:11 19.54226 54.02550 35791 ft 498 kts 109°
2026-04-29 18:11 19.52227 54.09579 35793 ft 499 kts 109°
2026-04-29 18:12 19.50225 54.16629 35794 ft 500 kts 109°
2026-04-29 18:12 19.48226 54.23684 35794 ft 500 kts 109°
2026-04-29 18:13 19.46225 54.30747 35796 ft 500 kts 109°
2026-04-29 18:13 19.44224 54.37798 35796 ft 500 kts 109°
2026-04-29 18:14 19.42218 54.44854 35797 ft 500 kts 109°
2026-04-29 18:14 19.40210 54.51904 35801 ft 500 kts 109°
2026-04-29 18:15 19.38199 54.58955 35798 ft 500 kts 109°
2026-04-29 18:15 19.36187 54.65996 35803 ft 500 kts 109°
2026-04-29 18:16 19.34171 54.73041 35802 ft 500 kts 109°
2026-04-29 18:16 19.32153 54.80081 35804 ft 500 kts 109°
2026-04-29 18:17 19.30132 54.87121 35808 ft 500 kts 109°
2026-04-29 18:17 19.28107 54.94163 35813 ft 500 kts 109°
2026-04-29 18:18 19.26093 55.01159 35820 ft 500 kts 109°
2026-04-29 18:18 19.24062 55.08198 35825 ft 500 kts 109°
2026-04-29 18:19 19.22027 55.15245 35823 ft 501 kts 109°
2026-04-29 18:19 19.19988 55.22290 35828 ft 501 kts 109°
2026-04-29 18:20 19.17949 55.29327 35825 ft 501 kts 109°
2026-04-29 18:20 19.15905 55.36371 35830 ft 501 kts 109°
2026-04-29 18:21 19.13859 55.43411 35828 ft 501 kts 109°
2026-04-29 18:21 19.11813 55.50440 35831 ft 501 kts 109°
2026-04-29 18:22 19.09709 55.57451 35819 ft 497 kts 115°
2026-04-29 18:22 19.07973 55.60568 35840 ft 492 kts 132°
2026-04-29 18:22 19.05482 55.63006 35844 ft 487 kts 148°
2026-04-29 18:22 19.02486 55.64619 35848 ft 484 kts 163°
2026-04-29 18:23 18.99215 55.65392 35843 ft 482 kts 176°
2026-04-29 18:23 18.95870 55.65392 35854 ft 481 kts 187°
2026-04-29 18:23 18.92594 55.64726 35833 ft 480 kts 200°
2026-04-29 18:24 18.86759 55.61470 35848 ft 479 kts 211°
2026-04-29 18:24 18.81033 55.57838 35845 ft 482 kts 211°
2026-04-29 18:25 18.75232 55.54261 35840 ft 483 kts 210°
2026-04-29 18:25 18.69387 55.50747 35844 ft 484 kts 210°
2026-04-29 18:26 18.63530 55.47249 35841 ft 483 kts 210°
2026-04-29 18:26 18.57683 55.43755 35839 ft 483 kts 210°
2026-04-29 18:27 18.52832 55.40854 35842 ft 482 kts 210°
2026-04-29 18:27 18.47007 55.37373 35847 ft 481 kts 210°
2026-04-29 18:28 18.41190 55.33899 35848 ft 480 kts 210°
2026-04-29 18:28 18.35385 55.30435 35853 ft 480 kts 209°
2026-04-29 18:29 18.29582 55.26973 35852 ft 480 kts 209°
2026-04-29 18:29 18.23774 55.23508 35856 ft 480 kts 209°
2026-04-29 18:30 18.17969 55.20046 35859 ft 480 kts 209°
2026-04-29 18:30 18.12072 55.16764 35854 ft 480 kts 204°
2026-04-29 18:31 18.05936 55.14022 35862 ft 480 kts 202°
2026-04-29 18:31 17.99777 55.11309 35858 ft 480 kts 203°
2026-04-29 18:32 17.93624 55.08568 35865 ft 480 kts 203°
2026-04-29 18:32 17.84440 55.04451 35873 ft 481 kts 203°
2026-04-29 18:33 17.78292 55.01696 35877 ft 481 kts 203°
2026-04-29 18:33 17.72144 54.98943 35882 ft 480 kts 203°
2026-04-29 18:34 17.66987 54.96637 35880 ft 480 kts 203°
2026-04-29 18:34 17.59844 54.93446 35883 ft 480 kts 203°
2026-04-29 18:35 17.53702 54.90703 35893 ft 480 kts 203°
2026-04-29 18:35 17.47555 54.87960 35895 ft 480 kts 203°
2026-04-29 18:36 17.41415 54.85222 35905 ft 479 kts 203°
2026-04-29 18:36 17.35278 54.82487 35909 ft 479 kts 203°
2026-04-29 18:37 17.29147 54.79754 35907 ft 479 kts 203°
2026-04-29 18:37 17.23293 54.76432 35908 ft 479 kts 212°
2026-04-29 18:38 17.17737 54.72653 35900 ft 480 kts 212°
2026-04-29 18:38 17.12141 54.68862 35900 ft 480 kts 212°
2026-04-29 18:39 17.06520 54.65096 35896 ft 480 kts 212°
2026-04-29 18:39 17.00897 54.61342 35884 ft 480 kts 212°
2026-04-29 18:40 16.95281 54.57593 35886 ft 479 kts 212°
2026-04-29 18:40 16.89659 54.53842 35875 ft 479 kts 212°
2026-04-29 18:41 16.78435 54.46356 35858 ft 479 kts 212°
2026-04-29 18:42 16.72822 54.42613 35853 ft 479 kts 212°
2026-04-29 18:42 16.67213 54.38876 35856 ft 479 kts 212°
2026-04-29 18:43 16.61595 54.35135 35854 ft 479 kts 212°
2026-04-29 18:43 16.55989 54.31405 35860 ft 479 kts 212°
2026-04-29 18:44 16.50412 54.27697 35862 ft 479 kts 212°
2026-04-29 18:44 16.44767 54.23946 35867 ft 479 kts 212°
2026-04-29 18:45 16.39181 54.20237 35868 ft 478 kts 212°
2026-04-29 18:45 16.33572 54.16516 35872 ft 478 kts 212°
2026-04-29 18:46 16.27955 54.12791 35877 ft 478 kts 212°
2026-04-29 18:46 16.22346 54.09074 35880 ft 478 kts 212°
2026-04-29 18:47 16.16739 54.05362 35886 ft 478 kts 212°
2026-04-29 18:47 16.11133 54.01651 35892 ft 478 kts 212°
2026-04-29 18:48 16.05528 53.97945 35894 ft 477 kts 212°
2026-04-29 18:48 15.99929 53.94245 35896 ft 477 kts 212°
2026-04-29 18:49 15.94324 53.90542 35895 ft 477 kts 212°
2026-04-29 18:49 15.88732 53.86851 35901 ft 476 kts 212°
2026-04-29 18:50 15.83149 53.83144 35900 ft 476 kts 212°
2026-04-29 18:50 15.77617 53.79443 35899 ft 476 kts 212°
2026-04-29 18:51 15.72023 53.75704 35898 ft 475 kts 212°
2026-04-29 18:51 15.66498 53.72017 35899 ft 475 kts 212°
2026-04-29 18:52 15.60932 53.68308 35900 ft 475 kts 212°
2026-04-29 18:52 15.55378 53.64608 35897 ft 475 kts 212°
2026-04-29 18:53 15.49820 53.60907 35895 ft 474 kts 212°
2026-04-29 18:53 15.44266 53.57212 35898 ft 474 kts 212°
2026-04-29 18:54 15.38687 53.53574 35898 ft 474 kts 211°
2026-04-29 18:54 15.33061 53.49989 35898 ft 474 kts 211°
2026-04-29 18:55 15.27446 53.46407 35896 ft 474 kts 211°
2026-04-29 18:55 15.21834 53.42817 35896 ft 474 kts 211°
2026-04-29 18:56 15.16227 53.39226 35897 ft 474 kts 211°
2026-04-29 18:56 15.10653 53.35659 35896 ft 474 kts 211°
2026-04-29 18:57 15.05044 53.32072 35896 ft 474 kts 211°
2026-04-29 18:57 14.99429 53.28484 35896 ft 474 kts 211°
2026-04-29 18:58 14.93813 53.24897 35896 ft 474 kts 211°
2026-04-29 18:58 14.88196 53.21312 35895 ft 474 kts 211°
2026-04-29 18:59 14.82577 53.17728 35897 ft 474 kts 211°
2026-04-29 18:59 14.76959 53.14146 35896 ft 474 kts 211°
2026-04-29 19:00 14.71338 53.10564 35897 ft 474 kts 211°
2026-04-29 19:00 14.65865 53.06765 35892 ft 475 kts 218°
2026-04-29 19:01 14.61037 53.02112 35896 ft 475 kts 224°
2026-04-29 19:01 14.56434 52.97208 35904 ft 475 kts 225°
2026-04-29 19:02 14.52602 52.93138 35899 ft 476 kts 224°
2026-04-29 19:02 14.47226 52.87471 35897 ft 476 kts 224°
2026-04-29 19:03 14.42583 52.82598 35895 ft 476 kts 224°
2026-04-29 19:03 14.37948 52.77737 35896 ft 476 kts 224°
2026-04-29 19:04 14.33301 52.72866 35894 ft 476 kts 224°
2026-04-29 19:04 14.28659 52.68003 35893 ft 476 kts 224°
2026-04-29 19:05 14.24018 52.63143 35893 ft 476 kts 224°
2026-04-29 19:05 14.19374 52.58283 35890 ft 476 kts 224°
2026-04-29 19:06 14.14735 52.53430 35889 ft 475 kts 224°
2026-04-29 19:07 14.07798 52.46181 35891 ft 475 kts 224°
2026-04-29 19:07 14.03156 52.41333 35889 ft 475 kts 224°
2026-04-29 19:08 13.98513 52.36488 35891 ft 475 kts 224°
2026-04-29 19:08 13.93868 52.31643 35892 ft 475 kts 224°
2026-04-29 19:09 13.89228 52.26806 35890 ft 475 kts 224°
2026-04-29 19:09 13.84584 52.21969 35889 ft 475 kts 224°
2026-04-29 19:10 13.79941 52.17135 35890 ft 475 kts 224°
2026-04-29 19:10 13.75297 52.12303 35892 ft 475 kts 224°
2026-04-29 19:11 13.70653 52.07473 35885 ft 475 kts 224°
2026-04-29 19:11 13.66006 52.02643 35886 ft 475 kts 224°
2026-04-29 19:12 13.61361 51.97818 35883 ft 475 kts 224°
2026-04-29 19:12 13.56711 51.92989 35881 ft 475 kts 224°
2026-04-29 19:13 13.52075 51.88159 35879 ft 475 kts 225°
2026-04-29 19:13 13.47466 51.83297 35881 ft 475 kts 225°
2026-04-29 19:14 13.42890 51.78463 35883 ft 475 kts 225°
2026-04-29 19:14 13.38283 51.73605 35881 ft 475 kts 225°
2026-04-29 19:15 13.33670 51.68749 35884 ft 475 kts 225°
2026-04-29 19:15 13.29054 51.63893 35882 ft 475 kts 225°
2026-04-29 19:16 13.24440 51.59043 35883 ft 475 kts 225°
2026-04-29 19:16 13.19828 51.54196 35884 ft 475 kts 225°
2026-04-29 19:17 13.15209 51.49346 35883 ft 475 kts 225°
2026-04-29 19:17 13.10589 51.44497 35883 ft 475 kts 225°
2026-04-29 19:18 13.06002 51.39684 35880 ft 475 kts 225°
2026-04-29 19:18 13.01351 51.34809 35877 ft 475 kts 225°
2026-04-29 19:19 12.96758 51.29996 35878 ft 475 kts 225°
2026-04-29 19:19 12.92138 51.25158 35882 ft 475 kts 225°
2026-04-29 19:20 12.87511 51.20315 35878 ft 475 kts 225°
2026-04-29 19:20 12.82882 51.15473 35874 ft 476 kts 225°
2026-04-29 19:21 12.78250 51.10629 35880 ft 476 kts 225°
2026-04-29 19:21 12.73622 51.05794 35881 ft 476 kts 225°
2026-04-29 19:22 12.68984 51.00949 35875 ft 476 kts 225°
2026-04-29 19:22 12.65133 50.96928 35874 ft 476 kts 225°
2026-04-29 19:23 12.60493 50.92090 35872 ft 476 kts 225°
2026-04-29 19:23 12.55845 50.87255 35874 ft 476 kts 225°
2026-04-29 19:24 12.51194 50.82418 35872 ft 476 kts 225°
2026-04-29 19:24 12.46545 50.77583 35872 ft 477 kts 225°
2026-04-29 19:25 12.41897 50.72751 35873 ft 477 kts 225°
2026-04-29 19:25 12.37244 50.67918 35870 ft 477 kts 225°
2026-04-29 19:26 12.32592 50.63086 35870 ft 477 kts 225°
2026-04-29 19:26 12.27934 50.58253 35869 ft 477 kts 225°
2026-04-29 19:27 12.23301 50.53446 35870 ft 477 kts 225°
2026-04-29 19:27 12.18624 50.48596 35868 ft 477 kts 225°
2026-04-29 19:28 12.14019 50.43712 35863 ft 477 kts 227°
2026-04-29 19:28 12.09609 50.38663 35871 ft 477 kts 229°
2026-04-29 19:29 12.05241 50.33619 35868 ft 477 kts 228°
2026-04-29 19:29 12.00813 50.28560 35869 ft 477 kts 228°
2026-04-29 19:30 11.96376 50.23525 35869 ft 477 kts 228°
2026-04-29 19:30 11.91936 50.18496 35867 ft 477 kts 228°
2026-04-29 19:31 11.87489 50.13458 35869 ft 477 kts 228°
2026-04-29 19:31 11.83055 50.08437 35869 ft 477 kts 228°
2026-04-29 19:32 11.78609 50.03403 35869 ft 477 kts 228°
2026-04-29 19:32 11.74165 49.98376 35869 ft 477 kts 228°
2026-04-29 19:33 11.69726 49.93355 35868 ft 477 kts 228°
2026-04-29 19:33 11.65284 49.88335 35874 ft 476 kts 228°
2026-04-29 19:34 11.60846 49.83322 35876 ft 476 kts 228°
2026-04-29 19:34 11.56403 49.78305 35882 ft 476 kts 228°
2026-04-29 19:35 11.51967 49.73299 35890 ft 476 kts 228°
2026-04-29 19:35 11.47552 49.68318 35898 ft 476 kts 228°
2026-04-29 19:36 11.43119 49.63318 35908 ft 476 kts 228°
2026-04-29 19:36 11.38679 49.58319 35915 ft 476 kts 227°
2026-04-29 19:37 11.34061 49.53474 35910 ft 477 kts 225°
2026-04-29 19:37 11.29337 49.48722 35916 ft 477 kts 225°
2026-04-29 19:38 11.24637 49.43968 35922 ft 477 kts 225°
2026-04-29 19:38 11.19934 49.39168 35919 ft 477 kts 225°
2026-04-29 19:39 11.15250 49.34371 35911 ft 477 kts 225°
2026-04-29 19:39 11.10573 49.29581 35921 ft 477 kts 225°
2026-04-29 19:40 11.05890 49.24790 35917 ft 477 kts 225°
2026-04-29 19:40 11.01209 49.20006 35919 ft 477 kts 225°
2026-04-29 19:41 10.96522 49.15216 35924 ft 477 kts 225°
2026-04-29 19:41 10.91865 49.10461 35928 ft 477 kts 225°
2026-04-29 19:42 10.87184 49.05682 35933 ft 477 kts 225°
2026-04-29 19:42 10.82502 49.00905 35942 ft 477 kts 225°
2026-04-29 19:43 10.77809 48.96119 35944 ft 478 kts 225°
2026-04-29 19:43 10.73115 48.91334 35950 ft 478 kts 225°
2026-04-29 19:44 10.68418 48.86548 35955 ft 478 kts 225°
2026-04-29 19:44 10.63724 48.81768 35960 ft 478 kts 225°
2026-04-29 19:45 10.59022 48.76982 35964 ft 478 kts 225°
2026-04-29 19:45 10.54320 48.72197 35968 ft 478 kts 225°
2026-04-29 19:46 10.49618 48.67415 35967 ft 479 kts 225°
2026-04-29 19:46 10.44912 48.62632 35972 ft 479 kts 225°
2026-04-29 19:47 10.40198 48.57842 35975 ft 479 kts 225°
2026-04-29 19:47 10.35495 48.53065 35976 ft 479 kts 225°
2026-04-29 19:48 10.30775 48.48274 35980 ft 479 kts 225°
2026-04-29 19:48 10.26052 48.43482 35983 ft 480 kts 225°
2026-04-29 19:49 10.21328 48.38690 35984 ft 480 kts 225°
2026-04-29 19:49 10.16605 48.33902 35983 ft 481 kts 225°
2026-04-29 19:50 10.11867 48.29101 35983 ft 481 kts 225°
2026-04-29 19:50 10.07162 48.24335 35981 ft 481 kts 225°
2026-04-29 19:51 10.02426 48.19540 35978 ft 482 kts 225°
2026-04-29 19:51 9.97678 48.14735 35975 ft 482 kts 225°
2026-04-29 19:52 9.92938 48.09940 35973 ft 481 kts 225°
2026-04-29 19:52 9.88196 48.05146 35972 ft 482 kts 225°
2026-04-29 19:53 9.83446 48.00344 35973 ft 482 kts 224°
2026-04-29 19:53 9.78696 47.95546 35969 ft 482 kts 224°
2026-04-29 19:54 9.71578 47.88358 35966 ft 482 kts 224°
2026-04-29 19:54 9.66810 47.83547 35963 ft 483 kts 224°
2026-04-29 19:55 9.62053 47.78747 35955 ft 483 kts 224°
2026-04-29 19:55 9.57289 47.73944 35950 ft 483 kts 224°
2026-04-29 19:56 9.52531 47.69148 35946 ft 483 kts 224°
2026-04-29 19:56 9.47757 47.64338 35943 ft 483 kts 224°
2026-04-29 19:57 9.43795 47.60347 35936 ft 483 kts 224°
2026-04-29 19:57 9.38231 47.54746 35936 ft 483 kts 224°
2026-04-29 19:58 9.33452 47.49937 35929 ft 483 kts 224°
2026-04-29 19:58 9.28717 47.45173 35924 ft 484 kts 224°
2026-04-29 19:59 9.23958 47.40386 35920 ft 484 kts 224°
2026-04-29 19:59 9.19181 47.35585 35915 ft 484 kts 224°
2026-04-29 20:00 9.14465 47.30710 35915 ft 484 kts 225°
2026-04-29 20:00 9.09813 47.25775 35908 ft 484 kts 226°
2026-04-29 20:01 9.05158 47.20843 35912 ft 484 kts 225°
2026-04-29 20:01 9.00486 47.15919 35912 ft 485 kts 225°
2026-04-29 20:02 8.95817 47.11009 35914 ft 485 kts 225°
2026-04-29 20:02 8.91929 47.06923 35916 ft 485 kts 225°
2026-04-29 20:03 8.86454 47.01169 35917 ft 485 kts 225°
2026-04-29 20:03 8.81769 46.96247 35922 ft 486 kts 225°
2026-04-29 20:04 8.77082 46.91325 35923 ft 486 kts 225°
2026-04-29 20:04 8.72395 46.86405 35926 ft 486 kts 225°
2026-04-29 20:05 8.67695 46.81473 35930 ft 487 kts 225°
2026-04-29 20:05 8.62998 46.76546 35934 ft 487 kts 225°
2026-04-29 20:06 8.58319 46.71640 35934 ft 487 kts 225°
2026-04-29 20:06 8.53614 46.66708 35931 ft 488 kts 225°
2026-04-29 20:07 8.48906 46.61776 35931 ft 488 kts 225°
2026-04-29 20:07 8.44203 46.56850 35931 ft 488 kts 225°
2026-04-29 20:08 8.40282 46.52744 35931 ft 488 kts 225°
2026-04-29 20:08 8.34777 46.46981 35927 ft 488 kts 225°
2026-04-29 20:09 8.30068 46.42055 35925 ft 488 kts 225°
2026-04-29 20:09 8.25352 46.37121 35929 ft 488 kts 225°
2026-04-29 20:10 8.20639 46.32189 35926 ft 488 kts 225°
2026-04-29 20:10 8.15963 46.27223 35927 ft 488 kts 226°
2026-04-29 20:11 8.11293 46.22236 35926 ft 488 kts 226°
2026-04-29 20:11 8.06624 46.17261 35926 ft 488 kts 226°
2026-04-29 20:12 8.01952 46.12289 35925 ft 488 kts 226°
2026-04-29 20:12 7.97274 46.07316 35923 ft 488 kts 226°
2026-04-29 20:13 7.93388 46.03186 35923 ft 489 kts 226°
2026-04-29 20:13 7.88710 45.98215 35927 ft 489 kts 226°
2026-04-29 20:14 7.83263 45.92429 35926 ft 489 kts 226°
2026-04-29 20:14 7.78586 45.87463 35926 ft 488 kts 226°
2026-04-29 20:15 7.74671 45.83306 35926 ft 488 kts 226°
2026-04-29 20:15 7.69990 45.78338 35927 ft 488 kts 225°
2026-04-29 20:16 7.65314 45.73381 35930 ft 488 kts 225°
2026-04-29 20:16 7.60625 45.68422 35926 ft 488 kts 225°
2026-04-29 20:17 7.55973 45.63504 35928 ft 488 kts 225°
2026-04-29 20:17 7.51261 45.58521 35932 ft 488 kts 225°
2026-04-29 20:18 7.46576 45.53569 35933 ft 488 kts 225°
2026-04-29 20:18 7.41925 45.48653 35938 ft 488 kts 225°
2026-04-29 20:19 7.37248 45.43712 35940 ft 488 kts 225°
2026-04-29 20:19 7.32553 45.38753 35940 ft 489 kts 225°
2026-04-29 20:20 7.27850 45.33787 35944 ft 489 kts 225°
2026-04-29 20:20 7.23149 45.28825 35944 ft 490 kts 225°
2026-04-29 20:21 7.18445 45.23861 35950 ft 490 kts 225°
2026-04-29 20:21 7.13735 45.18893 35954 ft 491 kts 225°
2026-04-29 20:22 7.09014 45.13916 35952 ft 491 kts 225°
2026-04-29 20:22 7.04302 45.08947 35955 ft 491 kts 225°
2026-04-29 20:23 6.99580 45.03972 35955 ft 491 kts 225°
2026-04-29 20:23 6.94860 44.98999 35960 ft 491 kts 225°
2026-04-29 20:24 6.90142 44.94030 35959 ft 491 kts 225°
2026-04-29 20:24 6.85422 44.89060 35959 ft 491 kts 225°
2026-04-29 20:25 6.80702 44.84091 35958 ft 491 kts 225°
2026-04-29 20:25 6.75972 44.79113 35955 ft 491 kts 225°
2026-04-29 20:26 6.71248 44.74143 35954 ft 492 kts 225°
2026-04-29 20:26 6.66512 44.69176 35955 ft 492 kts 225°
2026-04-29 20:27 6.62586 44.65067 35953 ft 492 kts 225°
2026-04-29 20:27 6.57038 44.59257 35951 ft 492 kts 225°
2026-04-29 20:28 6.52299 44.54295 35947 ft 492 kts 225°
2026-04-29 20:28 6.47559 44.49331 35948 ft 492 kts 225°
2026-04-29 20:29 6.42812 44.44363 35946 ft 492 kts 225°
2026-04-29 20:29 6.38099 44.39430 35942 ft 493 kts 225°
2026-04-29 20:30 6.33356 44.34468 35945 ft 493 kts 225°
2026-04-29 20:30 6.28600 44.29494 35940 ft 493 kts 225°
2026-04-29 20:31 6.23846 44.24523 35943 ft 493 kts 225°
2026-04-29 20:31 6.19087 44.19549 35945 ft 493 kts 225°
2026-04-29 20:32 6.14329 44.14577 35946 ft 494 kts 225°
2026-04-29 20:32 6.09577 44.09613 35945 ft 494 kts 225°
2026-04-29 20:33 6.04806 44.04630 35943 ft 494 kts 225°
2026-04-29 20:33 6.00049 43.99662 35940 ft 494 kts 225°
2026-04-29 20:34 5.95276 43.94680 35940 ft 494 kts 225°
2026-04-29 20:34 5.90513 43.89709 35939 ft 495 kts 225°
2026-04-29 20:35 5.85735 43.84723 35935 ft 495 kts 225°
2026-04-29 20:35 5.80964 43.79746 35939 ft 495 kts 225°
2026-04-29 20:36 5.76181 43.74758 35939 ft 495 kts 225°
2026-04-29 20:36 5.71441 43.69815 35942 ft 495 kts 225°
2026-04-29 20:37 5.66667 43.64839 35942 ft 495 kts 225°
2026-04-29 20:37 5.61868 43.59860 35946 ft 496 kts 225°
2026-04-29 20:38 5.57066 43.54885 35949 ft 497 kts 225°
2026-04-29 20:38 5.52250 43.49895 35951 ft 498 kts 225°
2026-04-29 20:39 5.47424 43.44892 35958 ft 499 kts 225°
2026-04-29 20:39 5.42588 43.39879 35955 ft 501 kts 225°
2026-04-29 20:40 5.37742 43.34857 35959 ft 502 kts 225°
2026-04-29 20:40 5.32879 43.29819 35963 ft 503 kts 226°
2026-04-29 20:41 5.28018 43.24783 35962 ft 503 kts 226°
2026-04-29 20:41 5.23153 43.19746 35962 ft 503 kts 226°
2026-04-29 20:42 5.18289 43.14710 35964 ft 503 kts 226°
2026-04-29 20:42 5.13451 43.09703 35966 ft 502 kts 226°
2026-04-29 20:43 5.08599 43.04682 35963 ft 502 kts 226°
2026-04-29 20:43 5.03735 42.99650 35964 ft 502 kts 226°
2026-04-29 20:44 4.98877 42.94626 35962 ft 501 kts 226°
2026-04-29 20:44 4.94034 42.89617 35962 ft 501 kts 226°
2026-04-29 20:45 4.89172 42.84591 35959 ft 500 kts 226°
2026-04-29 20:45 4.84328 42.79584 35954 ft 500 kts 226°
2026-04-29 20:46 4.79495 42.74589 35955 ft 499 kts 226°
2026-04-29 20:46 4.74661 42.69595 35954 ft 499 kts 226°
2026-04-29 20:47 4.69831 42.64606 35949 ft 499 kts 226°
2026-04-29 20:47 4.65024 42.59641 35951 ft 499 kts 226°
2026-04-29 20:48 4.60161 42.54620 35947 ft 498 kts 226°
2026-04-29 20:48 4.55365 42.49670 35949 ft 498 kts 226°
2026-04-29 20:49 4.50535 42.44684 35947 ft 498 kts 226°
2026-04-29 20:49 4.45721 42.39717 35943 ft 498 kts 226°
2026-04-29 20:50 4.40888 42.34730 35940 ft 498 kts 226°
2026-04-29 20:50 4.36063 42.29753 35940 ft 497 kts 226°
2026-04-29 20:51 4.31240 42.24780 35938 ft 497 kts 226°
2026-04-29 20:51 4.26426 42.19816 35938 ft 497 kts 226°
2026-04-29 20:52 4.21615 42.14856 35936 ft 496 kts 226°
2026-04-29 20:52 4.16840 42.09934 35940 ft 496 kts 226°
2026-04-29 20:53 4.11993 42.04940 35942 ft 496 kts 226°
2026-04-29 20:53 4.07186 41.99986 35938 ft 496 kts 226°
2026-04-29 20:54 3.99974 41.92555 35940 ft 496 kts 226°
2026-04-29 20:55 3.95189 41.87628 35942 ft 497 kts 225°
2026-04-29 20:55 3.90050 41.83038 35952 ft 497 kts 219°
2026-04-29 20:56 3.84652 41.78678 35948 ft 497 kts 218°
2026-04-29 20:56 3.79264 41.74330 35950 ft 498 kts 219°
2026-04-29 20:57 3.73906 41.69965 35951 ft 498 kts 219°
2026-04-29 20:57 3.68537 41.65570 35955 ft 497 kts 219°
2026-04-29 20:58 3.63181 41.61184 35957 ft 496 kts 219°
2026-04-29 20:58 3.57847 41.56819 35961 ft 495 kts 219°
2026-04-29 20:59 3.52516 41.52459 35964 ft 494 kts 219°
2026-04-29 20:59 3.47208 41.48118 35967 ft 493 kts 219°
2026-04-29 21:00 3.41885 41.43765 35967 ft 493 kts 219°
2026-04-29 21:00 3.36578 41.39427 35967 ft 493 kts 219°
2026-04-29 21:01 3.31263 41.35082 35968 ft 492 kts 219°
2026-04-29 21:01 3.25960 41.30748 35970 ft 493 kts 219°
2026-04-29 21:02 3.20652 41.26410 35973 ft 493 kts 219°
2026-04-29 21:02 3.15330 41.22062 35968 ft 493 kts 219°
2026-04-29 21:03 3.10015 41.17720 35966 ft 494 kts 219°
2026-04-29 21:03 3.04728 41.13401 35968 ft 493 kts 219°
2026-04-29 21:04 2.99417 41.09063 35966 ft 493 kts 219°
2026-04-29 21:04 2.94969 41.05430 35966 ft 492 kts 219°
2026-04-29 21:05 2.89668 41.01102 35967 ft 492 kts 219°
2026-04-29 21:05 2.84368 40.96774 35968 ft 491 kts 219°
2026-04-29 21:06 2.79103 40.92476 35967 ft 491 kts 219°
2026-04-29 21:06 2.73780 40.88131 35964 ft 491 kts 219°
2026-04-29 21:07 2.68531 40.83847 35964 ft 490 kts 219°
2026-04-29 21:07 2.63245 40.79533 35964 ft 490 kts 219°
2026-04-29 21:08 2.57973 40.75230 35963 ft 490 kts 219°
2026-04-29 21:08 2.52676 40.70908 35966 ft 490 kts 219°
2026-04-29 21:09 2.47399 40.66602 35965 ft 490 kts 219°
2026-04-29 21:09 2.42116 40.62291 35965 ft 490 kts 219°
2026-04-29 21:10 2.36818 40.57989 35969 ft 490 kts 218°
2026-04-29 21:10 2.31501 40.53733 35966 ft 490 kts 218°
2026-04-29 21:11 2.26168 40.49468 35967 ft 490 kts 218°
2026-04-29 21:11 2.20862 40.45216 35966 ft 490 kts 218°
2026-04-29 21:12 2.15540 40.40948 35966 ft 490 kts 218°
2026-04-29 21:12 2.10231 40.36690 35965 ft 490 kts 218°
2026-04-29 21:13 2.04916 40.32428 35965 ft 489 kts 218°
2026-04-29 21:13 1.99648 40.28203 35965 ft 489 kts 218°
2026-04-29 21:14 1.94334 40.23942 35963 ft 489 kts 218°
2026-04-29 21:14 1.89033 40.19692 35960 ft 489 kts 218°
2026-04-29 21:15 1.83720 40.15433 35960 ft 489 kts 218°
2026-04-29 21:15 1.78413 40.11178 35957 ft 489 kts 218°
2026-04-29 21:16 1.73140 40.06873 35958 ft 489 kts 221°
2026-04-29 21:16 1.68214 40.02179 35958 ft 490 kts 224°
2026-04-29 21:17 1.63398 39.97357 35955 ft 489 kts 224°
2026-04-29 21:17 1.58557 39.92574 35953 ft 489 kts 224°
2026-04-29 21:18 1.53682 39.87831 35956 ft 489 kts 224°
2026-04-29 21:18 1.48796 39.83103 35957 ft 489 kts 224°
2026-04-29 21:19 1.43899 39.78367 35952 ft 490 kts 224°
2026-04-29 21:19 1.39038 39.73661 35952 ft 490 kts 224°
2026-04-29 21:20 1.34107 39.68886 35954 ft 491 kts 224°
2026-04-29 21:20 1.29237 39.64168 35952 ft 491 kts 224°
2026-04-29 21:21 1.24330 39.59416 35949 ft 492 kts 224°
2026-04-29 21:21 1.19408 39.54650 35953 ft 492 kts 224°
2026-04-29 21:22 1.14495 39.49893 35949 ft 492 kts 224°
2026-04-29 21:22 1.09568 39.45122 35949 ft 493 kts 223°
2026-04-29 21:23 1.04644 39.40355 35950 ft 493 kts 224°
2026-04-29 21:23 0.99710 39.35578 35950 ft 494 kts 223°
2026-04-29 21:24 0.94776 39.30801 35953 ft 494 kts 223°
2026-04-29 21:24 0.89880 39.26062 35951 ft 494 kts 223°
2026-04-29 21:25 0.84947 39.21287 35951 ft 493 kts 223°
2026-04-29 21:25 0.80023 39.16520 35952 ft 493 kts 223°
2026-04-29 21:26 0.75099 39.11753 35945 ft 493 kts 223°
2026-04-29 21:26 0.70176 39.06989 35950 ft 493 kts 223°
2026-04-29 21:27 0.65253 39.02224 35953 ft 493 kts 223°
2026-04-29 21:27 0.60333 38.97462 35956 ft 493 kts 223°
2026-04-29 21:28 0.55402 38.92690 35962 ft 493 kts 223°
2026-04-29 21:28 0.50474 38.87920 35967 ft 493 kts 223°
2026-04-29 21:29 0.45550 38.83156 35969 ft 493 kts 223°
2026-04-29 21:29 0.40616 38.78380 35971 ft 494 kts 223°
2026-04-29 21:30 0.35681 38.73603 35973 ft 494 kts 223°
2026-04-29 21:30 0.30740 38.68822 35976 ft 495 kts 223°
2026-04-29 21:31 0.25801 38.64043 35979 ft 495 kts 223°
2026-04-29 21:31 0.20888 38.59289 35979 ft 495 kts 223°
2026-04-29 21:32 0.15942 38.54502 35985 ft 495 kts 223°
2026-04-29 21:32 0.11001 38.49720 35988 ft 495 kts 223°
2026-04-29 21:33 0.06057 38.44936 35997 ft 495 kts 223°
2026-04-29 21:33 0.01116 38.40155 35995 ft 494 kts 223°
2026-04-29 21:34 -0.03821 38.35377 36004 ft 494 kts 223°
2026-04-29 21:34 -0.08762 38.30595 36005 ft 494 kts 223°
2026-04-29 21:35 -0.13700 38.25817 36007 ft 494 kts 223°
2026-04-29 21:35 -0.18636 38.21040 36016 ft 494 kts 223°
2026-04-29 21:36 -0.23570 38.16266 36025 ft 494 kts 223°
2026-04-29 21:36 -0.28512 38.11484 36027 ft 494 kts 223°
2026-04-29 21:37 -0.33448 38.06707 36036 ft 494 kts 223°
2026-04-29 21:37 -0.38386 38.01928 36044 ft 494 kts 223°
2026-04-29 21:38 -0.43322 37.97151 36049 ft 494 kts 223°
2026-04-29 21:38 -0.48224 37.92406 36061 ft 494 kts 223°
2026-04-29 21:39 -0.53158 37.87631 36075 ft 493 kts 223°
2026-04-29 21:39 -0.58083 37.82864 36079 ft 493 kts 223°
2026-04-29 21:40 -0.63004 37.78101 36088 ft 493 kts 223°
2026-04-29 21:40 -0.65481 37.75704 35323 ft 504 kts 223°
2026-04-29 21:40 -0.68012 37.73256 34511 ft 504 kts 223°
2026-04-29 21:40 -0.70543 37.70806 33399 ft 507 kts 223°
2026-04-29 21:41 -0.73074 37.68356 32492 ft 504 kts 223°
2026-04-29 21:41 -0.75583 37.65927 31453 ft 504 kts 223°
2026-04-29 21:41 -0.78109 37.63481 30438 ft 505 kts 223°
2026-04-29 21:41 -0.80620 37.61050 29484 ft 501 kts 223°
2026-04-29 21:42 -0.83110 37.58640 28673 ft 495 kts 223°
2026-04-29 21:42 -0.85569 37.56258 27938 ft 488 kts 223°
2026-04-29 21:42 -0.87173 37.54706 27460 ft 485 kts 223°
2026-04-29 21:42 -0.90388 37.51593 26522 ft 477 kts 223°
2026-04-29 21:43 -0.92763 37.49294 25841 ft 473 kts 223°
2026-04-29 21:43 -0.95119 37.47013 25123 ft 469 kts 223°
2026-04-29 21:43 -0.97457 37.44751 24437 ft 466 kts 223°
2026-04-29 21:43 -0.99776 37.42505 23758 ft 463 kts 223°
2026-04-29 21:44 -1.02086 37.40270 22969 ft 461 kts 223°
2026-04-29 21:44 -1.04344 37.38083 22263 ft 456 kts 224°
2026-04-29 21:44 -1.06614 37.35885 21573 ft 452 kts 224°
2026-04-29 21:44 -1.08857 37.33713 20920 ft 447 kts 224°
2026-04-29 21:45 -1.11083 37.31558 20269 ft 443 kts 224°
2026-04-29 21:45 -1.13286 37.29426 19616 ft 439 kts 224°
2026-04-29 21:45 -1.15471 37.27310 18984 ft 437 kts 224°
2026-04-29 21:45 -1.17620 37.25228 18315 ft 434 kts 224°
2026-04-29 21:46 -1.19792 37.23124 17592 ft 430 kts 224°
2026-04-29 21:46 -1.21930 37.21052 16937 ft 426 kts 224°
2026-04-29 21:46 -1.24049 37.19000 16307 ft 422 kts 224°
2026-04-29 21:46 -1.26145 37.16971 15673 ft 418 kts 224°
2026-04-29 21:47 -1.28202 37.14945 15053 ft 412 kts 227°
2026-04-29 21:47 -1.30028 37.12744 14445 ft 409 kts 233°
2026-04-29 21:47 -1.31661 37.10470 13817 ft 407 kts 235°
2026-04-29 21:47 -1.33261 37.08156 13207 ft 402 kts 236°
2026-04-29 21:48 -1.34851 37.05871 12605 ft 398 kts 235°
2026-04-29 21:48 -1.36443 37.03626 12042 ft 394 kts 234°
2026-04-29 21:48 -1.38043 37.01404 11401 ft 392 kts 234°
2026-04-29 21:48 -1.39617 36.99242 11184 ft 379 kts 234°
2026-04-29 21:49 -1.41143 36.97156 11079 ft 363 kts 234°
2026-04-29 21:49 -1.42602 36.95162 11005 ft 348 kts 234°
2026-04-29 21:49 -1.44003 36.93249 10911 ft 335 kts 234°
2026-04-29 21:49 -1.45353 36.91403 10824 ft 322 kts 234°
2026-04-29 21:50 -1.46651 36.89630 10766 ft 310 kts 234°
2026-04-29 21:50 -1.47901 36.87921 10663 ft 300 kts 233°
2026-04-29 21:50 -1.49120 36.86223 10086 ft 304 kts 239°
2026-04-29 21:50 -1.49800 36.84241 9694 ft 302 kts 266°
2026-04-29 21:51 -1.49540 36.82206 9479 ft 294 kts 291°
2026-04-29 21:51 -1.48507 36.80462 9098 ft 293 kts 313°
2026-04-29 21:51 -1.45247 36.78488 8932 ft 265 kts 354°
2026-04-29 21:52 -1.43475 36.78667 8850 ft 252 kts 20°
2026-04-29 21:52 -1.41943 36.79425 8778 ft 240 kts 35°
2026-04-29 21:52 -1.40772 36.80547 8691 ft 228 kts 52°
2026-04-29 21:52 -1.39858 36.81789 8559 ft 218 kts 55°
2026-04-29 21:53 -1.39005 36.82993 8387 ft 211 kts 54°
2026-04-29 21:53 -1.38149 36.84192 8113 ft 209 kts 55°
2026-04-29 21:53 -1.37306 36.85370 7791 ft 209 kts 54°
2026-04-29 21:53 -1.36455 36.86549 7487 ft 209 kts 54°
2026-04-29 21:54 -1.35617 36.87708 7338 ft 202 kts 54°
2026-04-29 21:54 -1.34801 36.88830 7296 ft 204 kts 54°
2026-04-29 21:54 -1.33959 36.89984 7282 ft 208 kts 54°
2026-04-29 21:54 -1.33106 36.91153 7269 ft 208 kts 54°
2026-04-29 21:55 -1.32236 36.92346 7295 ft 227 kts 54°
2026-04-29 21:55 -1.31218 36.93740 7342 ft 264 kts 54°
2026-04-29 21:55 -1.30121 36.95242 7296 ft 270 kts 54°
2026-04-29 21:55 -1.29285 36.96890 7251 ft 269 kts 79°
2026-04-29 21:56 -1.29352 36.98744 7264 ft 271 kts 108°
2026-04-29 21:56 -1.30299 37.00368 7254 ft 274 kts 135°
2026-04-29 21:56 -1.31891 37.01391 7263 ft 275 kts 160°
2026-04-29 21:56 -1.33763 37.01686 7251 ft 272 kts 178°
2026-04-29 21:57 -1.35661 37.01736 7250 ft 273 kts 178°
2026-04-29 21:57 -1.37564 37.01773 7251 ft 274 kts 178°
2026-04-29 21:57 -1.39468 37.01812 7242 ft 274 kts 178°
2026-04-29 21:57 -1.41377 37.01858 7243 ft 273 kts 178°
2026-04-29 21:58 -1.43271 37.01908 7238 ft 273 kts 178°
2026-04-29 21:58 -1.45164 37.01963 7238 ft 272 kts 178°
2026-04-29 21:58 -1.46411 37.02001 7236 ft 271 kts 178°
2026-04-29 21:58 -1.48296 37.02059 7232 ft 270 kts 178°
2026-04-29 21:59 -1.50785 37.02136 7232 ft 270 kts 178°
2026-04-29 21:59 -1.52643 37.02196 7218 ft 262 kts 177°
2026-04-29 21:59 -1.53852 37.02236 7214 ft 254 kts 177°
2026-04-29 21:59 -1.55573 37.02274 7182 ft 240 kts 184°
2026-04-29 22:00 -1.57632 37.01196 7258 ft 288 kts 229°
2026-04-29 22:00 -1.58537 36.99390 7227 ft 293 kts 258°
2026-04-29 22:00 -1.58602 36.98031 7221 ft 290 kts 278°
2026-04-29 22:00 -1.57883 36.96191 7228 ft 284 kts 303°
2026-04-29 22:01 -1.56729 36.94592 7245 ft 285 kts 307°
2026-04-29 22:01 -1.55525 36.93011 7264 ft 283 kts 307°
2026-04-29 22:01 -1.54353 36.91465 7266 ft 276 kts 307°
2026-04-29 22:01 -1.53208 36.89940 7247 ft 273 kts 307°
2026-04-29 22:02 -1.52078 36.88422 7242 ft 273 kts 307°
2026-04-29 22:02 -1.50944 36.86887 7251 ft 274 kts 307°
2026-04-29 22:02 -1.49815 36.85349 7253 ft 275 kts 306°
2026-04-29 22:02 -1.48698 36.83825 7252 ft 275 kts 306°
2026-04-29 22:03 -1.47586 36.82307 7239 ft 264 kts 306°
2026-04-29 22:03 -1.46533 36.80869 7232 ft 249 kts 306°
2026-04-29 22:03 -1.45430 36.79643 7235 ft 227 kts 327°
2026-04-29 22:03 -1.44028 36.79164 7240 ft 206 kts 358°
2026-04-29 22:04 -1.42673 36.79358 7243 ft 194 kts 20°
2026-04-29 22:04 -1.41502 36.79984 7263 ft 188 kts 44°
2026-04-29 22:04 -1.40655 36.80904 7264 ft 171 kts 49°
2026-04-29 22:04 -1.39949 36.81769 7244 ft 153 kts 53°
2026-04-29 22:05 -1.39318 36.82610 7260 ft 151 kts 54°
2026-04-29 22:05 -1.38692 36.83465 7263 ft 153 kts 54°
2026-04-29 22:05 -1.37425 36.85204 7018 ft 155 kts 54°
2026-04-29 22:06 -1.36800 36.86064 6811 ft 151 kts 54°
2026-04-29 22:06 -1.36187 36.86907 6637 ft 150 kts 54°
2026-04-29 22:06 -1.35571 36.87755 6417 ft 152 kts 54°
2026-04-29 22:06 -1.34945 36.88614 6178 ft 153 kts 54°
2026-04-29 22:07 -1.34326 36.89465 5955 ft 153 kts 54°
2026-04-29 22:07 -1.33704 36.90321 5731 ft 150 kts 54°
2026-04-29 22:07 -1.33114 36.91164 5513 ft 151 kts 52°
2026-04-29 22:07 -1.32489 36.92011 5351 ft 149 kts 51°
2026-04-29 22:08 -1.31920 36.92785 5319 ft 130 kts 52°
2026-04-29 22:08 -1.31444 36.93438 5315 ft 85 kts 51°
2026-04-29 22:08 -1.31211 36.93746 5308 ft 21 kts 54°
2026-04-29 22:08 -1.31138 36.93792 5311 ft 14 kts 346°
2026-04-29 22:09 -1.31069 36.93735 5309 ft 14 kts 299°
2026-04-29 22:09 -1.31078 36.93646 5309 ft 14 kts 231°
2026-04-29 22:09 -1.31162 36.93609 5313 ft 14 kts 183°
2026-04-29 22:09 -1.31258 36.93613 5312 ft 14 kts 176°
2026-04-29 22:10 -1.31341 36.93574 5312 ft 14 kts 230°
2026-04-29 22:10 -1.31399 36.93497 5312 ft 14 kts 233°
2026-04-29 22:10 -1.31456 36.93419 5311 ft 14 kts 233°
2026-04-29 22:10 -1.31521 36.93349 5314 ft 14 kts 205°
2026-04-29 22:11 -1.31612 36.93365 5315 ft 14 kts 152°
2026-04-29 22:11 -1.31693 36.93420 5313 ft 14 kts 146°
2026-04-29 22:11 -1.31760 36.93467 5315 ft 10 kts 152°
2026-04-29 22:11 -1.31824 36.93460 5315 ft 10 kts 214°
2026-04-29 22:12 -1.31871 36.93409 5316 ft 10 kts 232°
2026-04-29 22:12 -1.31912 36.93353 5317 ft 10 kts 233°
2026-04-29 22:12 -1.31953 36.93298 5318 ft 10 kts 233°
2026-04-29 22:12 -1.31993 36.93242 5320 ft 10 kts 233°
2026-04-29 22:13 -1.32034 36.93186 5317 ft 10 kts 234°
2026-04-29 22:13 -1.32075 36.93130 5319 ft 10 kts 234°
2026-04-29 22:13 -1.32115 36.93075 5321 ft 10 kts 234°
2026-04-29 22:13 -1.32156 36.93019 5324 ft 10 kts 234°
2026-04-29 22:14 -1.32196 36.92964 5326 ft 10 kts 233°
2026-04-29 22:14 -1.32236 36.92909 5328 ft 10 kts 234°
2026-04-29 22:14 -1.32278 36.92852 5326 ft 10 kts 233°
2026-04-29 22:14 -1.32319 36.92798 5342 ft 10 kts 232°
2026-04-29 22:15 -1.32359 36.92742 5341 ft 10 kts 233°
2026-04-29 22:15 -1.32399 36.92687 5341 ft 10 kts 234°
2026-04-29 22:15 -1.32439 36.92631 5342 ft 10 kts 234°
2026-04-29 22:15 -1.32481 36.92576 5340 ft 10 kts 233°
2026-04-29 22:16 -1.32522 36.92521 5341 ft 10 kts 233°
2026-04-29 22:16 -1.32563 36.92466 5341 ft 10 kts 233°
2026-04-29 22:16 -1.32607 36.92411 5325 ft 10 kts 229°
2026-04-29 22:16 -1.32661 36.92362 5328 ft 11 kts 192°
2026-04-29 22:17 -1.32732 36.92382 5339 ft 9 kts 166°
2026-04-29 22:17 -1.32791 36.92362 5342 ft 9 kts 221°
2026-04-29 22:17 -1.32835 36.92315 5342 ft 9 kts 228°
2026-04-29 22:17 -1.32871 36.92277 5342 ft 0 kts 217°
2026-04-29 22:18 -1.32881 36.92270 5342 ft 5 kts 214°
2026-04-29 22:18 -1.32900 36.92272 5342 ft 2 kts 150°
2026-04-29 22:18 -1.32912 36.92280 5341 ft 2 kts 148°
2026-04-29 22:18 -1.32924 36.92291 5341 ft 3 kts 128°
2026-04-29 22:19 -1.32934 36.92308 5340 ft 3 kts 122°
2026-04-29 22:19 -1.32939 36.92317 5342 ft 0 kts 120°
2026-04-29 22:19 -1.32941 36.92320 5342 ft 1 kts 118°
2026-04-29 22:19 -1.32944 36.92326 5342 ft 1 kts 120°
2026-04-29 22:20 -1.32945 36.92328 5342 ft 0 kts 121°